International Skating Union - Official Site

ISU World Cup Speed Skating Final
March 11-12, 2017

Draw | Lap Times | Index | World Cup

Referee: Berri  DE JONGE  (NED)
Starter: Ole Herman  SÖRLI  (NOR)
StartTime: EndTime: Air Temp: Ice Temp: Humidity:
11:37 11:52 14.8 ℃ -6.8 ℃ 40.1%
Result Team Pursuit Men
Rankings as of Mar 11 2017 12:10PM
Rank: No.: Team: Nation: Time: Behind: Points:
Total 5
1 5 Netherlands (26) Jorrit Bergsma (27) Douwe de Vries (28) Evert Hoolwerf (37) Arjan Stroetinga NED NED 3:43.020.5 - 17.91 - (17.9)
1.0 - 31.19 - (13.2)
1.5 - 44.57 - (13.3)
2.0 - 57.87 - (13.2)
2.5 - 1:11.24 - (13.3)
3.0 - 1:24.99 - (13.7)
3.5 - 1:38.86 - (13.8)
4.0 - 1:52.75 - (13.8)
4.5 - 2:06.23 - (13.4)
5.0 - 2:19.78 - (13.5)
5.5 - 2:33.57 - (13.7)
6.0 - 2:47.25 - (13.6)
6.5 - 3:01.01 - (13.7)
7.0 - 3:15.08 - (14.0)
7.5 - 3:29.10 - (14.0)
8.0 - 3:43.02 - (13.9)
150
2 6 Norway (39) Sindre Henriksen (42) Simen Spieler Nilsen (43) Sverre Lunde Pedersen (41) Håvard Holmefjord Lorentzen NOR NOR 3:43.350.5 - 17.51 - (17.5)
1.0 - 30.72 - (13.2)
1.5 - 44.02 - (13.3)
2.0 - 57.53 - (13.5)
2.5 - 1:11.21 - (13.6)
3.0 - 1:25.14 - (13.9)
3.5 - 1:39.13 - (13.9)
4.0 - 1:52.85 - (13.7)
4.5 - 2:06.60 - (13.7)
5.0 - 2:20.53 - (13.9)
5.5 - 2:34.23 - (13.6)
6.0 - 2:47.82 - (13.5)
6.5 - 3:01.45 - (13.6)
7.0 - 3:15.16 - (13.7)
7.5 - 3:29.02 - (13.8)
8.0 - 3:43.35 - (14.3)
0.33 120
3 4 Japan (21) Shota Nakamura (24) Shane Williamson (23) Ryosuke Tsuchiya JPN JPN 3:44.090.5 - 17.65 - (17.6)
1.0 - 31.22 - (13.5)
1.5 - 44.71 - (13.4)
2.0 - 58.32 - (13.6)
2.5 - 1:11.98 - (13.6)
3.0 - 1:25.73 - (13.7)
3.5 - 1:39.51 - (13.7)
4.0 - 1:53.02 - (13.5)
4.5 - 2:06.68 - (13.6)
5.0 - 2:20.60 - (13.9)
5.5 - 2:34.23 - (13.6)
6.0 - 2:47.99 - (13.7)
6.5 - 3:01.90 - (13.9)
7.0 - 3:15.95 - (14.0)
7.5 - 3:30.11 - (14.1)
8.0 - 3:44.09 - (14.0)
1.07 104
4 3 Italy (17) Andrea Giovannini (18) Michele Malfatti (19) Nicola Tumolero ITA ITA 3:46.570.5 - 18.09 - (18.0)
1.0 - 31.82 - (13.7)
1.5 - 45.35 - (13.5)
2.0 - 59.05 - (13.6)
2.5 - 1:12.76 - (13.7)
3.0 - 1:26.22 - (13.4)
3.5 - 1:39.90 - (13.6)
4.0 - 1:53.48 - (13.5)
4.5 - 2:07.47 - (13.9)
5.0 - 2:21.43 - (13.9)
5.5 - 2:35.53 - (14.0)
6.0 - 2:49.75 - (14.2)
6.5 - 3:03.75 - (14.0)
7.0 - 3:17.88 - (14.1)
7.5 - 3:31.83 - (13.9)
8.0 - 3:46.57 - (14.7)
3.55 90
5 1 Canada (3) Jordan Belchos (4) Ted-Jan Bloemen (5) Vincent De Haitre (7) Olivier Jean CAN CAN 3:48.510.5 - 18.55 - (18.5)
1.0 - 32.14 - (13.5)
1.5 - 45.68 - (13.5)
2.0 - 59.27 - (13.5)
2.5 - 1:12.71 - (13.4)
3.0 - 1:26.23 - (13.5)
3.5 - 1:40.00 - (13.7)
4.0 - 1:53.66 - (13.6)
4.5 - 2:07.51 - (13.8)
5.0 - 2:21.67 - (14.1)
5.5 - 2:35.88 - (14.2)
6.0 - 2:50.08 - (14.2)
6.5 - 3:04.26 - (14.1)
7.0 - 3:18.67 - (14.4)
7.5 - 3:33.43 - (14.7)
8.0 - 3:48.51 - (15.0)
5.49 76